Temp
71 74 74 76 76 74 75 76 76 76 76 77 77 77 77 76 76 76 77 77 77 77 77 77 76 76 76 75 75 75 75 75 74 74 75 75 76 76 76 75 75 74 76
75 76 73 75 77 76 76 75 76 76 76 77 77 77 76 76 76 76 76 76 77 77 77 76 76 75 74 74 75 75 75 74 74 74 73 74 75 75 75 75 75 75 76
77 78 74 74 76 75 75 75 76 76 76 76 76 76 76 76 76 76 76 76 76 77 76 76 75 74 74 74 75 75 75 75 75 74 73 71 72 75 75 74 75 76 76
80 78 77 73 75 75 75 75 76 76 76 76 76 76 76 76 76 76 76 76 76 76 76 75 74 74 73 74 74 75 75 74 73 72 72 72 74 75 75 75 75 75 75
80 79 76 73 75 75 75 74 75 75 76 76 76 76 76 76 75 76 75 75 75 75 75 74 74 73 73 74 74 74 75 74 72 72 70 68 70 75 75 74 73 73 73
80 78 72 74 75 75 74 75 75 75 76 76 75 75 75 75 75 75 75 74 74 74 74 73 73 72 72 72 73 73 75 74 72 69 69 71 72 75 74 73 72 72 71
79 76 74 73 74 74 75 75 75 75 76 75 75 75 75 74 74 74 74 73 73 73 73 72 72 71 71 71 72 73 72 71 70 70 70 70 71 74 73 72 72 71 71
77 76 74 70 71 72 74 74 74 75 74 74 74 74 74 74 74 73 73 73 72 72 72 71 70 70 70 71 71 71 71 70 71 70 69 70 72 73 72 71 71 70 70
79 76 73 72 71 68 70 71 72 73 73 73 73 73 72 72 72 72 72 72 72 71 71 70 69 70 70 70 70 68 67 68 65 66 70 68 71 73 72 70 70 70 69
75 75 73 73 72 71 69 68 69 70 71 71 70 68 68 68 68 68 68 70 71 70 70 69 68 69 68 68 68 67 66 66 63 64 64 68 71 72 70 69 70 69 68
73 74 74 74 73 72 71 68 66 67 68 67 66 65 65 66 67 67 66 68 69 69 69 67 67 67 66 66 67 66 66 67 66 65 63 68 71 71 70 70 69 68 67
68 72 74 74 74 75 76 68 69 70 68 69 68 66 68 67 67 66 62 64 66 66 67 67 67 66 64 61 61 64 65 64 61 61 63 68 70 70 69 69 68 67 67
66 69 73 74 74 73 72 71 72 70 69 69 69 67 69 67 64 62 59 59 58 60 60 62 61 60 61 59 59 59 60 58 60 61 62 68 70 69 69 69 67 67 66
67 68 69 70 70 73 72 72 70 71 69 69 69 69 69 67 64 62 60 58 58 61 57 57 57 58 58 59 59 59 59 60 61 61 59 61 68 68 70 68 67 66 65
68 69 71 70 68 73 72 69 69 72 70 68 68 69 69 66 64 64 61 59 61 61 62 58 56 56 56 57 57 57 56 59 60 59 54 59 65 68 68 68 67 66 65
71 70 70 69 72 74 71 67 66 67 69 70 69 69 67 67 65 64 62 60 60 61 61 61 60 56 54 54 55 56 55 54 56 54 53 53 61 65 67 67 66 66 65
72 71 69 67 68 68 69 69 69 66 68 67 67 69 69 67 64 63 60 60 58 58 59 60 57 57 55 54 52 53 52 53 52 53 52 51 51 58 63 64 64 64 64
70 69 70 70 68 68 67 67 69 69 68 66 66 67 68 68 65 62 61 59 57 58 57 55 54 52 53 50 49 48 48 49 50 50 50 50 49 49 55 61 62 62 62
70 69 68 68 67 67 67 66 66 67 66 68 67 68 67 67 66 63 61 59 57 56 55 54 52 54 52 51 49 46 46 45 47 50 47 47 48 46 45 54 55 58 60
68 68 69 67 66 65 65 63 63 63 63 65 68 70 68 66 66 64 61 56 57 55 53 52 51 51 51 51 53 48 44 44 44 43 44 47 45 45 44 45 44 48 56
65 66 68 65 64 65 62 61 58 60 59 61 69 66 67 66 65 63 61 57 56 54 53 52 51 49 49 51 46 45 43 44 43 42 42 41 43 43 44 43 43 44 46
65 63 64 66 64 65 64 63 59 57 57 59 59 59 62 64 64 62 60 57 56 54 52 51 50 48 48 49 44 44 38 39 41 43 41 43 41 43 43 44 43 43 41
62 61 63 65 65 64 63 60 57 56 55 55 54 58 57 59 60 61 59 57 56 55 52 51 50 50 47 47 47 47 38 36 36 39 41 41 40 39 40 41 42 43 41
63 60 62 62 61 62 61 60 58 58 54 52 52 53 56 56 57 58 58 57 56 55 53 51 52 52 48 47 48 50 47 41 36 31 36 37 39 40 38 38 39 40 41
60 58 58 59 60 60 62 61 58 54 53 51 51 51 54 54 55 55 56 55 55 54 53 51 50 50 50 48 48 45 43 44 41 35 29 32 34 37 37 38 37 38 41
58 57 56 57 57 58 58 59 56 54 52 51 50 51 52 52 52 52 52 53 54 53 51 50 50 51 50 49 49 48 46 43 39 38 32 30 32 34 36 37 37 38 38
MSLP
1018.87 1019.01 1019.12 1019.57 1019.78 1020.11 1020.29 1020.20 1020.27 1020.60 1020.56 1020.57 1020.58 1020.64 1020.69 1020.72 1020.73 1020.75 1020.58 1020.63 1020.59 1020.62 1020.79 1020.91 1021.01 1021.18 1021.39 1021.42 1021.34 1021.44 1021.53 1021.66 1021.63 1021.73 1021.72 1021.68 1021.66 1021.81 1021.74 1021.68 1021.70 1021.71 1021.62
1018.03 1018.69 1019.47 1019.72 1019.84 1020.32 1020.45 1020.53 1020.63 1020.78 1020.74 1020.84 1020.86 1020.94 1021.08 1021.10 1021.11 1021.11 1021.04 1021.05 1020.98 1021.16 1021.30 1021.46 1021.61 1021.76 1021.87 1021.87 1021.77 1021.78 1021.91 1021.96 1021.94 1022.16 1022.25 1022.29 1022.39 1022.48 1022.45 1022.29 1022.16 1022.10 1022.17
1018.00 1018.73 1019.47 1019.76 1020.15 1020.42 1020.61 1020.82 1020.95 1021.02 1021.09 1021.30 1021.40 1021.47 1021.51 1021.46 1021.53 1021.55 1021.55 1021.43 1021.44 1021.70 1021.90 1022.13 1022.29 1022.32 1022.34 1022.32 1022.21 1022.10 1022.14 1022.27 1022.34 1022.40 1022.58 1022.85 1022.96 1022.98 1022.91 1022.97 1022.70 1022.54 1022.58
1017.81 1018.70 1019.31 1019.92 1020.24 1020.51 1020.81 1020.97 1021.22 1021.38 1021.48 1021.57 1021.76 1021.82 1021.87 1021.87 1021.87 1021.94 1021.95 1022.00 1022.02 1022.16 1022.40 1022.62 1022.83 1022.79 1022.81 1022.71 1022.66 1022.59 1022.61 1022.73 1022.84 1023.11 1023.03 1023.25 1023.36 1023.45 1023.48 1023.35 1023.35 1023.24 1023.18
1017.72 1018.56 1019.24 1019.92 1020.31 1020.65 1020.93 1021.25 1021.46 1021.70 1021.77 1021.89 1022.08 1022.19 1022.15 1022.25 1022.35 1022.37 1022.34 1022.45 1022.61 1022.67 1022.90 1023.12 1023.24 1023.24 1023.29 1023.21 1023.14 1023.16 1023.05 1023.11 1023.24 1023.33 1023.49 1023.70 1023.79 1023.95 1023.92 1024.04 1023.92 1023.90 1023.89
1017.73 1018.48 1019.35 1019.87 1020.24 1020.65 1020.98 1021.32 1021.56 1021.80 1021.88 1022.07 1022.32 1022.46 1022.55 1022.60 1022.69 1022.70 1022.82 1022.99 1023.22 1023.34 1023.49 1023.65 1023.69 1023.83 1023.90 1023.73 1023.79 1023.49 1023.30 1023.49 1023.70 1023.84 1024.02 1024.09 1023.98 1024.14 1024.38 1024.46 1024.71 1024.55 1024.63
1017.93 1018.73 1019.41 1019.91 1020.34 1020.71 1021.05 1021.36 1021.61 1021.82 1021.98 1022.31 1022.59 1022.76 1022.85 1022.94 1023.03 1023.15 1023.31 1023.55 1023.77 1023.85 1024.05 1024.13 1024.29 1024.37 1024.44 1024.41 1024.34 1024.05 1023.98 1024.16 1024.45 1024.50 1024.58 1024.59 1024.63 1024.71 1024.97 1025.19 1025.25 1025.33 1025.50
1018.04 1018.74 1019.53 1020.14 1020.46 1020.78 1020.98 1021.36 1021.66 1021.92 1022.17 1022.55 1022.73 1022.94 1023.05 1023.24 1023.38 1023.53 1023.74 1023.94 1024.14 1024.35 1024.54 1024.60 1024.88 1024.95 1024.96 1024.93 1024.78 1024.50 1024.61 1024.68 1024.93 1025.13 1025.11 1025.07 1025.19 1025.41 1025.66 1025.90 1025.97 1026.19 1026.35
1017.75 1018.61 1019.55 1020.12 1020.50 1020.81 1021.12 1021.53 1021.84 1022.12 1022.35 1022.74 1022.94 1023.16 1023.36 1023.44 1023.69 1023.84 1024.09 1024.33 1024.49 1024.74 1024.84 1025.08 1025.27 1025.43 1025.41 1025.44 1025.33 1025.20 1025.15 1025.30 1025.52 1025.66 1025.56 1025.71 1025.85 1026.06 1026.30 1026.65 1026.78 1026.78 1026.88
1017.83 1018.57 1019.38 1019.98 1020.46 1020.77 1021.16 1021.51 1021.93 1022.19 1022.51 1022.83 1023.13 1023.48 1023.68 1023.82 1024.07 1024.27 1024.49 1024.70 1024.86 1025.11 1025.34 1025.53 1025.75 1025.86 1025.96 1025.94 1025.94 1025.84 1025.94 1026.08 1026.19 1026.21 1026.22 1026.15 1026.45 1026.63 1027.11 1027.42 1027.38 1027.42 1027.43
1017.99 1018.74 1019.12 1019.58 1020.10 1020.56 1021.04 1021.61 1021.95 1022.26 1022.64 1023.03 1023.48 1023.69 1023.89 1024.17 1024.42 1024.59 1024.93 1025.09 1025.30 1025.49 1025.69 1025.96 1026.17 1026.28 1026.30 1026.38 1026.42 1026.41 1026.54 1026.71 1026.74 1026.71 1026.62 1026.48 1026.69 1027.20 1027.61 1027.65 1027.94 1027.97 1028.16
1018.19 1018.65 1019.04 1019.40 1019.68 1020.17 1020.57 1021.41 1021.90 1022.25 1022.62 1022.95 1023.36 1023.66 1023.72 1024.10 1024.57 1024.97 1025.32 1025.53 1025.75 1025.90 1026.05 1026.25 1026.42 1026.51 1026.61 1026.74 1026.84 1026.95 1027.16 1027.37 1027.47 1027.31 1027.13 1027.09 1027.28 1027.72 1028.06 1028.19 1028.39 1028.55 1028.72
1017.93 1018.33 1018.80 1019.07 1019.46 1019.89 1020.42 1021.03 1021.48 1021.95 1022.37 1022.68 1023.02 1023.42 1023.49 1024.02 1024.65 1025.17 1025.70 1026.01 1026.20 1026.30 1026.37 1026.55 1026.79 1026.90 1027.04 1027.30 1027.39 1027.59 1027.86 1028.09 1027.96 1027.91 1027.77 1027.55 1027.77 1028.22 1028.35 1028.60 1028.81 1029.05 1029.19
1018.16 1018.43 1018.62 1018.79 1019.18 1019.62 1020.15 1020.57 1020.93 1021.30 1021.79 1022.22 1022.53 1022.96 1023.26 1023.81 1024.36 1025.02 1025.42 1026.04 1026.36 1026.48 1026.75 1026.88 1027.10 1027.23 1027.44 1027.67 1027.81 1028.00 1028.19 1028.32 1028.45 1028.61 1028.58 1028.21 1028.25 1028.61 1028.58 1029.01 1029.23 1029.41 1029.61
1017.51 1018.04 1018.39 1018.72 1019.24 1019.29 1019.63 1020.15 1020.48 1020.67 1021.10 1021.54 1022.04 1022.45 1022.78 1023.46 1023.96 1024.65 1025.08 1025.72 1026.04 1026.27 1026.51 1027.02 1027.42 1027.65 1027.82 1027.97 1028.20 1028.45 1028.72 1028.87 1029.01 1029.34 1029.31 1028.94 1028.72 1028.79 1029.06 1029.21 1029.53 1029.74 1029.94
1016.66 1017.09 1017.70 1018.43 1018.66 1018.87 1019.24 1019.77 1020.21 1020.30 1020.61 1020.94 1021.37 1021.86 1022.29 1022.89 1023.46 1024.08 1024.47 1025.24 1025.74 1025.98 1026.35 1026.82 1027.31 1027.83 1028.18 1028.32 1028.60 1028.84 1029.20 1029.46 1029.70 1030.03 1030.01 1029.93 1029.52 1029.43 1029.51 1029.62 1029.84 1030.01 1030.27
1015.74 1016.20 1016.97 1017.74 1018.38 1018.54 1018.83 1019.28 1019.68 1019.93 1020.20 1020.53 1020.84 1021.25 1021.78 1022.30 1022.91 1023.67 1024.53 1024.91 1025.56 1025.90 1026.15 1026.58 1027.30 1027.88 1028.46 1028.70 1029.12 1029.40 1029.63 1029.93 1030.21 1030.38 1030.53 1030.61 1030.52 1030.35 1030.25 1030.28 1030.34 1030.43 1030.62
1015.20 1015.68 1016.30 1017.07 1017.75 1018.16 1018.25 1018.54 1018.90 1019.16 1019.60 1020.01 1020.39 1020.73 1021.20 1021.78 1022.41 1023.16 1023.83 1024.49 1025.00 1025.70 1026.17 1026.89 1027.25 1028.13 1028.67 1029.15 1029.51 1029.96 1030.29 1030.45 1030.62 1030.81 1030.90 1031.01 1031.20 1031.36 1031.17 1030.99 1030.94 1030.95 1031.00
1014.38 1015.00 1015.58 1016.29 1017.00 1017.64 1017.99 1018.23 1018.58 1018.87 1019.23 1019.46 1019.73 1019.94 1020.44 1021.04 1021.79 1022.64 1023.28 1024.09 1024.69 1025.43 1026.09 1026.77 1027.45 1027.72 1028.54 1029.39 1029.50 1030.20 1030.62 1030.93 1031.02 1031.08 1031.38 1031.48 1031.66 1031.94 1032.01 1031.90 1031.83 1031.61 1031.52
1013.77 1014.30 1015.03 1015.76 1016.48 1017.20 1017.80 1018.18 1018.49 1018.76 1018.93 1019.07 1019.22 1019.50 1019.86 1020.49 1021.29 1022.07 1022.87 1023.88 1024.45 1025.13 1026.07 1026.69 1027.22 1027.70 1028.19 1029.06 1029.63 1030.20 1030.88 1031.13 1031.34 1031.62 1031.77 1031.87 1032.06 1032.24 1032.44 1032.53 1032.54 1032.37 1032.12
1013.45 1014.07 1014.49 1015.28 1016.01 1016.72 1017.32 1017.90 1018.28 1018.44 1018.60 1018.84 1018.65 1019.22 1019.46 1020.01 1020.71 1021.33 1022.15 1023.20 1023.91 1024.54 1025.36 1025.70 1027.16 1027.53 1028.26 1028.85 1029.76 1030.61 1031.16 1031.30 1031.56 1031.81 1032.00 1032.22 1032.26 1032.43 1032.58 1032.81 1032.94 1032.89 1032.80
1012.66 1013.38 1014.06 1014.60 1015.29 1015.94 1016.62 1017.11 1017.64 1017.97 1018.26 1018.47 1018.70 1018.97 1019.20 1019.30 1019.86 1020.83 1021.37 1022.28 1022.94 1023.99 1024.84 1026.09 1026.21 1027.01 1027.75 1028.15 1028.98 1029.73 1030.97 1031.76 1031.67 1031.68 1031.93 1032.07 1032.36 1032.49 1032.76 1032.89 1032.99 1033.12 1033.22
1012.13 1012.78 1013.45 1013.87 1014.59 1015.46 1016.15 1016.93 1017.52 1018.00 1018.29 1018.46 1018.53 1018.80 1019.03 1019.23 1019.38 1020.01 1020.79 1021.45 1022.16 1022.79 1023.64 1024.67 1025.30 1025.41 1026.26 1027.41 1027.58 1027.69 1029.63 1030.07 1031.05 1031.50 1031.68 1031.86 1032.23 1032.65 1032.89 1033.01 1033.08 1033.11 1033.25
1011.39 1012.12 1012.84 1013.64 1014.38 1015.04 1015.65 1016.29 1016.81 1017.03 1017.60 1017.68 1017.97 1018.47 1018.87 1019.18 1019.42 1019.79 1020.32 1020.66 1021.37 1022.00 1022.90 1023.60 1023.98 1024.51 1024.83 1025.84 1027.28 1026.72 1026.71 1027.36 1029.59 1031.51 1031.66 1031.75 1031.95 1032.36 1032.70 1032.94 1033.06 1033.08 1033.19
1011.18 1011.91 1012.67 1013.20 1013.77 1014.25 1014.89 1015.42 1016.09 1016.74 1017.01 1017.34 1017.90 1018.53 1018.98 1019.45 1019.54 1019.73 1019.90 1020.30 1020.72 1021.31 1021.95 1022.70 1023.53 1024.03 1024.26 1024.74 1025.18 1025.63 1026.76 1026.90 1027.47 1029.23 1031.08 1031.42 1031.81 1031.93 1032.20 1032.51 1032.78 1032.94 1032.98
1010.96 1011.64 1012.28 1012.89 1013.43 1013.95 1014.54 1015.06 1015.44 1015.95 1016.67 1017.23 1017.54 1017.96 1018.39 1019.00 1019.23 1019.53 1019.74 1019.88 1020.22 1020.63 1021.34 1022.07 1022.75 1023.01 1023.59 1023.84 1024.36 1024.67 1025.21 1025.61 1026.48 1027.48 1029.21 1030.70 1031.28 1031.54 1031.78 1031.99 1032.26 1032.57 1032.82
Wind_Speed
9 9 9 7 12 9 6 9 13 10 11 12 14 14 14 15 14 13 11 15 19 21 22 21 22 20 20 20 20 20 22 23 24 24 23 23 24 24 23 21 20 18 25
13 12 12 8 8 10 10 11 12 11 12 12 13 14 14 14 14 13 13 16 19 20 20 19 19 19 18 18 17 16 16 14 18 21 21 21 22 24 24 23 23 22 25
14 12 9 6 8 10 11 12 12 12 13 13 14 13 14 15 14 13 13 16 19 19 19 18 18 18 18 17 15 15 14 10 14 17 17 11 15 23 24 23 22 25 25
15 12 10 10 10 11 12 12 13 13 13 14 14 14 14 14 15 14 15 16 19 19 18 17 17 18 18 16 14 14 17 24 22 17 11 11 13 23 24 24 24 25 25
10 13 12 11 11 11 12 13 14 13 13 14 14 13 14 15 15 14 17 18 17 17 17 17 17 18 17 15 13 13 13 19 15 9 8 8 8 19 24 24 23 24 22
11 12 14 13 12 13 13 14 14 14 14 14 14 14 14 15 15 14 16 17 17 17 16 17 17 17 15 13 13 15 11 16 12 9 9 10 11 24 27 26 27 25 26
11 12 11 12 12 13 13 14 14 14 13 14 14 14 15 15 16 15 16 17 16 16 16 17 17 16 14 13 15 16 20 18 13 12 10 11 15 25 26 26 27 27 26
14 12 11 9 10 11 12 13 12 14 14 13 14 14 15 15 16 16 17 17 17 17 17 17 17 16 14 15 18 17 13 11 10 11 10 10 19 24 24 24 24 24 24
13 12 9 8 9 9 10 10 11 13 13 13 13 13 13 14 14 15 15 16 17 17 17 17 17 16 15 17 18 20 18 14 8 6 8 6 19 23 25 25 24 24 24
10 10 11 8 8 7 6 9 10 11 11 12 12 12 11 12 12 12 12 15 17 17 17 18 17 16 15 15 14 17 16 13 8 6 4 7 19 24 24 22 23 23 24
8 10 6 10 9 7 7 7 8 11 11 11 11 12 10 5 7 7 9 13 16 17 18 17 17 15 12 11 11 14 10 6 6 3 3 15 23 24 22 21 22 23 23
9 10 9 8 9 10 9 9 6 7 6 8 7 8 6 7 6 8 8 11 13 14 17 17 16 12 7 4 4 8 5 7 5 5 5 18 22 22 20 21 21 21 21
4 5 9 11 8 9 6 7 5 5 5 6 10 7 5 7 7 6 4 4 4 6 4 6 5 2 7 5 5 5 6 5 4 5 8 16 19 19 17 20 20 19 21
9 8 5 3 4 9 7 7 6 7 6 6 8 10 5 5 7 6 5 5 4 3 4 4 4 6 7 6 6 6 6 5 5 5 8 9 17 17 17 17 18 19 20
15 15 12 7 6 5 6 5 5 7 6 6 7 9 6 7 6 8 6 6 4 4 4 5 5 5 5 6 6 6 6 7 7 5 5 16 13 14 16 16 17 17 18
12 17 14 12 12 12 7 6 4 4 6 7 7 9 7 8 6 7 8 7 5 5 4 6 5 4 4 5 6 6 6 6 6 6 4 7 15 14 14 15 15 16 17
10 10 16 15 12 8 10 10 7 5 4 5 5 9 10 9 9 9 6 7 6 4 6 6 6 6 4 5 7 6 5 6 5 6 5 5 7 13 12 13 13 14 15
9 10 14 14 15 12 7 6 6 6 6 5 5 6 9 11 12 10 9 8 8 6 5 5 7 5 4 4 6 5 5 5 5 5 5 4 5 5 7 12 12 12 13
10 10 10 15 15 16 10 5 5 6 4 6 5 6 8 10 13 10 9 8 10 7 7 7 4 7 6 4 7 5 5 4 4 4 6 6 6 5 4 12 13 10 11
10 10 10 10 12 10 8 5 4 4 4 4 5 5 7 8 13 11 9 10 10 9 8 7 9 5 5 6 7 7 5 4 4 4 4 4 5 6 4 5 5 4 10
10 10 13 11 11 9 7 7 5 7 4 4 7 4 8 7 12 13 10 12 11 11 11 13 8 10 5 6 4 4 3 3 4 4 4 4 4 4 5 4 3 2 3
12 10 9 12 13 12 10 8 5 4 4 3 4 5 5 10 12 11 12 13 14 10 12 11 12 8 1 10 4 4 4 1 2 4 4 5 6 4 4 4 4 4 4
12 11 11 12 13 12 10 5 3 3 1 3 5 7 5 4 7 11 13 12 14 12 13 15 15 13 10 10 9 5 4 5 4 3 4 4 6 4 4 4 4 4 5
13 9 10 9 9 10 10 9 10 9 7 5 4 4 6 5 6 7 12 13 13 11 13 14 13 11 9 13 5 5 1 7 5 2 2 4 5 6 6 4 5 4 5
9 9 8 9 10 10 12 10 9 8 5 3 4 7 7 7 9 9 11 12 13 11 13 15 14 12 10 10 9 5 1 2 4 5 4 4 2 4 5 5 5 4 5
7 8 8 9 7 8 9 11 10 10 7 6 6 7 7 7 9 8 8 11 12 12 13 12 14 16 13 10 10 5 6 6 6 5 4 3 5 4 4 5 6 5 4
Wind_Direction
153 156 152 160 144 142 148 115 102 100 95 94 93 90 87 84 82 74 72 72 84 83 80 78 76 78 78 78 83 85 86 89 83 74 71 70 71 71 69 67 64 64 63
137 145 170 164 150 159 154 126 113 105 99 95 94 90 88 88 88 83 74 86 87 84 82 81 79 78 79 80 82 81 88 99 90 84 74 68 70 73 71 72 72 71 68
139 148 160 166 159 156 142 136 117 108 101 98 95 95 93 92 93 89 80 88 88 88 85 83 82 83 83 84 80 69 59 64 88 83 87 80 74 74 74 71 70 71 70
143 143 158 164 151 154 141 131 116 110 107 103 100 97 96 96 94 92 85 88 91 91 86 85 86 86 84 87 78 62 66 75 74 68 64 66 74 76 75 73 73 69 69
131 144 136 146 146 149 138 131 121 117 112 106 102 101 99 99 97 95 89 90 89 88 90 90 88 87 86 83 64 44 68 92 94 87 81 84 83 81 79 71 73 68 71
139 118 135 142 144 143 142 137 127 124 118 114 113 110 108 106 103 99 94 90 89 91 90 90 88 84 82 70 48 36 62 80 70 64 68 77 89 87 76 72 66 71 63
125 124 133 141 146 145 145 141 137 131 123 119 118 115 111 109 106 102 98 95 96 95 95 92 89 85 78 58 49 64 79 77 77 71 75 75 86 81 77 70 66 66 68
128 133 134 141 143 149 144 144 144 136 128 128 124 120 117 115 114 111 107 107 104 103 101 96 91 87 79 62 50 53 85 78 77 77 66 68 81 82 80 77 74 70 70
124 131 139 149 150 143 144 148 148 141 135 134 126 119 116 115 113 111 112 113 112 110 105 102 97 93 82 62 56 54 53 62 61 67 69 75 87 90 86 80 81 78 76
135 138 152 153 153 151 146 147 153 143 142 135 118 113 107 103 104 106 109 116 115 113 110 105 98 92 74 59 56 62 57 50 47 54 68 95 100 92 86 85 82 79 77
139 141 153 158 162 162 154 153 146 150 145 125 124 126 125 128 116 111 107 115 118 118 114 110 106 95 74 59 54 67 52 53 63 61 72 101 101 95 95 89 83 81 78
155 151 165 175 175 172 166 147 161 158 157 151 148 164 149 141 139 105 101 105 112 116 118 119 121 118 89 55 41 74 64 56 33 26 77 101 98 97 97 87 85 83 81
170 167 182 176 181 163 159 160 174 162 168 167 161 187 167 121 124 119 114 104 106 107 121 121 131 99 78 71 51 72 81 61 49 36 28 101 98 102 99 90 88 86 82
189 213 212 176 180 164 165 175 179 171 174 178 174 183 160 139 143 145 142 141 152 142 158 109 81 85 79 74 65 62 88 75 54 43 24 28 108 108 97 95 90 87 83
187 194 191 183 203 199 193 171 190 179 176 173 167 188 166 153 162 157 146 154 155 149 139 114 115 104 99 91 71 66 63 69 63 47 33 32 94 103 96 99 95 91 86
195 188 178 190 193 208 170 176 203 189 179 178 175 185 168 165 169 158 154 152 148 154 142 138 129 120 111 104 94 81 72 73 76 69 48 32 48 87 98 97 99 94 89
196 181 178 180 205 215 180 190 193 187 198 181 182 172 178 171 160 153 156 156 154 158 142 133 126 118 110 110 99 86 80 77 78 84 74 50 41 44 83 93 96 95 92
186 183 170 179 191 211 211 189 193 189 193 188 190 177 177 176 168 162 164 168 157 150 132 125 136 130 123 129 117 101 89 80 72 62 78 82 60 39 55 86 91 96 94
190 181 182 177 186 199 216 191 204 200 201 196 189 185 177 171 169 166 168 162 153 151 148 145 138 148 138 142 125 116 111 107 102 75 69 75 92 73 45 64 52 78 93
193 185 187 176 179 183 191 190 202 196 208 206 203 205 180 164 171 170 168 158 160 154 152 151 155 155 140 146 132 111 107 110 110 109 106 85 100 106 102 73 46 36 90
188 189 187 176 178 177 183 189 193 198 191 206 209 210 181 171 168 178 169 162 170 167 173 164 157 150 134 131 119 85 77 113 126 139 140 137 123 115 111 112 115 67 66
188 190 183 186 181 188 192 194 190 166 207 192 184 207 239 176 172 181 172 175 175 165 157 178 162 144 130 170 151 129 147 338 259 184 167 157 150 138 142 141 138 129 115
183 186 194 196 188 188 187 165 153 131 220 187 192 209 214 199 167 176 186 177 177 172 175 176 175 176 161 194 189 152 150 199 136 197 192 166 155 159 163 156 155 146 139
190 179 182 184 182 186 181 182 189 195 189 202 174 174 208 194 187 187 191 179 179 177 181 184 180 185 163 180 204 245 121 141 157 165 249 190 173 177 172 182 172 177 147
172 179 177 179 187 184 188 190 185 201 198 159 164 181 204 206 206 202 194 183 181 184 185 182 181 189 192 175 189 149 166 130 126 137 173 200 214 188 178 179 177 183 177
165 173 179 180 190 185 185 197 194 192 182 189 181 181 188 204 204 198 193 186 185 185 181 185 192 193 194 188 193 193 186 161 183 158 132 133 173 211 179 183 178 176 177